Volver al catálogo

FENGYUN 1C DEB

ActivoSSO
NORAD 46440·DEBRIS·🇨🇳 China

Lanzado May 10, 1999 desde Taiyuan Satellite Launch Center

Loading…

Próximos Pases (próximas 24 horas)

TLE

ActualizadoSource: Space-Track

Época: Sep 14, 2026, 22:00 UTC

1 46440U 99025EYV 26257.91730505  .00000513  00000-0  22080-3 0  9999
2 46440  98.5695 281.9347 0175727  55.8823  62.6622 14.20697021662905

Sigue FENGYUN 1C DEB en tiempo real con AllMySat

Download on the App Store